Location: Bauersach School (historical)
(38.0926°N, 89.4806°W)
Time: 03:19:45
(UTC+00:00)

Cosmos 2084 Rocket - Pass Details

Date: 11 December 2025
Orbit: 545 x 569 km, 62.8° (Epoch: 15 January)

Event Time Altitude Azimuth Distance (km) Brightness Sun altitude
Rises 23:46:53 0° 325° (NW) 2,769 7.1 -13.1°
Reaches altitude 10° 23:49:07 10° 324° (NW) 1,871 6.2 -13.5°
Maximum altitude 23:53:20 78° 238° (WSW) 584 3.5 -14.3°
Drops below altitude 10° 23:57:32 10° 152° (SSE) 1,860 5.9 -15.1°
Sets 23:59:45 0° 151° (SSE) 2,752 6.8 -15.5°
